This demonstration page uses our WeatherBlox Daily Observations layout. Learn more.

Left ArrowRight Arrow

39.92423, -83.80882

Hourly Observations for April 24, 2022

Temp ( °F °C ) Dew Point ( °F °C ) Humidity (%) Winds ( mph kmh ) Pressure ( in mb ) Visibility ( mi km ) Precip ( " mm )
12:56 am 00:56 Clear 67 19.4 53 11.7 61 61 S 6 9 30.03 1017 10 16 0.00 0.00
1:56 am 01:56 Clear 67 19.4 54 12.2 63 63 S 8 13 30.02 1017 10 16 0.00 0.00
2:56 am 02:56 Clear 67 19.4 54 12.2 63 63 SSW 9 15 30.02 1017 10 16 0.00 0.00
3:56 am 03:56 Clear 66 18.9 53 11.7 63 63 SSW 10 17 30.03 1017 10 16 0.00 0.00
4:56 am 04:56 Clear 65 18.3 53 11.7 66 66 SSW 10 17 30.04 1017 10 16 0.00 0.00
5:56 am 05:56 Clear 65 18.3 53 11.7 66 66 SSW 14 22 30.04 1017 10 16 0.00 0.00
6:56 am 06:56 Sunny 66 18.9 54 12.2 65 65 SSW 15 24 30.05 1018 10 16 0.00 0.00
7:56 am 07:56 Sunny 68 20 55 12.8 63 63 SSW 14 22 30.07 1018 10 16 0.00 0.00
8:56 am 08:56 Sunny 70 21.1 56 13.3 61 61 SW 17 28 30.07 1018 10 16 0.00 0.00
9:56 am 09:56 Sunny 73 22.8 56 13.3 55 55 SW 22 35 30.05 1018 10 16 0.00 0.00
10:56 am 10:56 Sunny 75 23.9 57 13.9 54 54 SW 18 30 30.05 1018 10 16 0.00 0.00
11:56 am 11:56 Sunny 76 24.4 58 14.4 54 54 SW 16 26 30.04 1017 10 16 0.00 0.00
12:56 pm 12:56 Sunny 78 25.6 58 14.4 50 50 SW 18 30 30.03 1017 10 16 0.00 0.00
1:56 pm 13:56 Mostly Sunny 80 26.7 58 14.4 47 47 SSW 13 20 30.01 1016 10 16 0.00 0.00
2:56 pm 14:56 Mostly Cloudy 80 26.7 57 13.9 45 45 SW 16 26 30.00 1016 10 16 0.00 0.00
3:56 pm 15:56 Sunny 81 27.2 57 13.9 44 44 SSW 15 24 29.98 1015 10 16 0.00 0.00
4:56 pm 16:56 Partly Cloudy 80 26.7 56 13.3 44 44 S 9 15 29.97 1015 10 16 0.00 0.00
5:56 pm 17:56 Sunny 80 26.7 57 13.9 45 45 SSW 13 20 29.96 1015 10 16 0.00 0.00
6:56 pm 18:56 Sunny 79 26.1 54 12.2 42 42 SSW 13 20 29.96 1015 10 16 0.00 0.00
7:56 pm 19:56 Sunny 76 24.4 53 11.7 45 45 SSW 8 13 29.96 1015 10 16 0.00 0.00
8:56 pm 20:56 Clear 74 23.3 53 11.7 48 48 SSW 8 13 29.97 1015 10 16 0.00 0.00
9:56 pm 21:56 Cloudy 72 22.2 54 12.2 53 53 SSW 5 7 29.98 1015 10 16 0.00 0.00
10:56 pm 22:56 Clear 69 20.6 54 12.2 59 59 S 7 11 29.98 1015 10 16 0.00 0.00
11:56 pm 23:56 Mostly Cloudy 69 20.6 55 12.8 61 61 S 8 13 29.96 1015 10 16 0.00 0.00

Powered by AerisWeather